Home   Weather   Horn   Past weeks

Flag for Austria Past Weather in Horn, Lower Austria, Austria — Yesterday and Last 2 Weeks

Now
67 °F

Passing clouds.


Feels Like: 67 °F
Forecast: 46 / 75 °F
Wind: 2 mph from North

Location: Retz

Current Time: Aug 30, 2016 at 9:05:50 PM

Latest Report: Aug 30, 2016 at 8:00 PM


Visibility: 14 mi

Pressure: 30.20 "Hg

Humidity: 49%

Dew Point: 47 °F

Location of HornLocation

Past Weather in Horn — Graph

°F

Horn Temperature Yesterday

Maximum temperature yesterday: 76 °F (at 3:00 PM)
Minimum temperature yesterday: 66 °F (at 7:00 AM)
Average temperature yesterday: 70 °F

High & Low Weather Summary for the Past Weeks

 TemperatureHumidityPressure
High86 °F (Aug 28, 5:00 PM)97% (Aug 20, 5:00 AM)30.36 "Hg (Aug 20, 5:00 AM)
Low56 °F (Aug 18, 6:00 AM)31% (Aug 18, 3:00 PM)29.76 "Hg (Aug 18, 6:00 PM)
Average68 °F66%30.07 "Hg
* Reported Aug 15 7:00 PM — Aug 30 7:00 PM, Horn, Weather by CustomWeather, © 2016

Note: Actual official high and low records may vary slightly from our data, if they occured in-between our weather recording intervals... More about our weather records

Advertising

Horn Weather History for the Previous 24 Hours

Scroll right to see more
 ConditionsComfort  
Time TempWeatherWind HumidityBarometerVisibility
7:00 PM
Tue, Aug 30
71 °FMild.3 mph44%30.17 "HgN/A
6:00 PM74 °FMild.5 mph42%30.17 "HgN/A
5:00 PM75 °FMild.3 mph42%30.17 "HgN/A
4:00 PM75 °FMild.3 mph43%30.17 "HgN/A
3:00 PM75 °FMild.3 mph45%30.19 "HgN/A
2:00 PM73 °FPartly sunny.5 mph49%30.20 "Hg19 mi
1:00 PM75 °FMild.3 mph46%30.20 "HgN/A
12:00 PM75 °FMild.2 mph52%30.19 "HgN/A
11:00 AM72 °FMild.3 mph57%30.21 "HgN/A
10:00 AM67 °FMild.1 mph68%30.22 "HgN/A
9:00 AM64 °FMild.1 mph73%30.21 "HgN/A
8:00 AM63 °FOvercast.3 mph74%30.18 "Hg12 mi
7:00 AM63 °FPartly sunny.3 mph76%30.16 "Hg11 mi
6:00 AM62 °FCool.7 mph79%30.14 "HgN/A
5:00 AM63 °FMild.6 mph81%30.13 "HgN/A
4:00 AM64 °FMild.6 mph80%30.12 "HgN/A
3:00 AM64 °FMild.7 mph85%30.11 "HgN/A
2:00 AM64 °FMild.8 mph86%30.11 "HgN/A
1:00 AM65 °FMild.8 mph83%30.10 "HgN/A
12:00 AM65 °FMild.6 mph83%30.11 "HgN/A
11:00 PM
Mon, Aug 29
66 °FMild.5 mph81%30.09 "HgN/A
10:00 PM67 °FMild.3 mph80%30.08 "HgN/A
9:00 PM68 °FMild.3 mph78%30.06 "HgN/A
Weather by CustomWeather, © 2016

See weather overviewHow to use our weather pages